FRBE

Gestion des Elos

FRBE


Périodes Recherche par Nom
    


Traitement de la table: p_chcklist202210
Fichier: '925INT01B.998'

Date Joueur Nom, Prénom Adversaire Nom, Prénom EloAdv Resultat
2022-09-25 213 Deblauwe, Pauwel 21873 Denys, Alex 2191 Nulle
2022-09-25 2925 Van Landeghem, Gunther 21615 Van Vlierberghe, Matthew-Vincent   Gain
2022-09-25 2941 Gervais, Jacques 24613 Vinckier, Robin   Nulle
2022-09-25 3531 Bistiaux, Thomas 21682 Fleischeuer, Sebastian   Gain
2022-09-25 3794 Van Den Abeele, Veerle 41220 Kocailov, Moris 1534 Gain
2022-09-25 3841 Van Den Bergh, Luc 23747 Nazari, Mani   Perdu
2022-09-25 4316 Vanassche, Renaat 22060 Staelens, Maël 1281 Perdu
2022-09-25 4626 De Hert, Robert 10248 Clarys, Stefaan 1320 Gain
2022-09-25 5177 Renckens, Yannick 98118 Heynen, Martin 1760 Gain
2022-09-25 5703 Jonckers, Marie-Jeanne 95604 Weynen, John 1514 Perdu
2022-09-25 6050 Moeyersons, Koenraad 14694 Lauwers, Brent 1294 Nulle
2022-09-25 6190 Traest, Philip 50049 Poublon, Lucien 1463 Gain
2022-09-25 6769 Dupont, Paul 10210 Van Esbroeck, Jozef 1283 Gain
2022-09-25 6891 De Visser, Stefaan 12187 De Smet, Ruben 1167 Perdu
2022-09-25 7102 Vincent, Albert 10962 Coussement, Serge 1162 Perdu
2022-09-25 7251 De Bode, Joren 23381 Frouws, Willem 1681 Gain
2022-09-25 8575 Herman, Luc 24466 Khorrami, Faraz   Perdu
2022-09-25 8788 Cornelis, Werner 46582 Elizalde, Alejandro 1469 Perdu
2022-09-25 8974 Van Wiele, Kurt 52035 Vanden Eede, Pascal 1601 Perdu
2022-09-25 10207 Verbruggen, Peter 32221 Vancoppenolle, Ghislain 1442 Perdu
2022-09-25 10208 Staes, Jan 19799 Peeters, Vince   Gain
2022-09-25 10210 Van Esbroeck, Jozef 6769 Dupont, Paul 1594 Perdu
2022-09-25 10248 Clarys, Stefaan 4626 De Hert, Robert 1711 Perdu
2022-09-25 10306 Claeys, Elisabeth 15562 Osaer, Jarne 1150 Gain
2022-09-25 10435 Michiels, Arsène 25124 Tolu, Matty   Gain
2022-09-25 10499 Braekmans, Geert 19469 Surkol, Hector   Perdu
2022-09-25 10962 Coussement, Serge 7102 Vincent, Albert 1229 Gain
2022-09-25 11125 Bondroit, Stef 16771 Entwistle, Alan 1151 Gain
2022-09-25 11266 Geussens, Patrick 21392 Renders, Henk 1433 Nulle
2022-09-25 11405 Vanroose, Gunnar 32409 Vlaeminck, Frank 1481 Gain
2022-09-25 11413 Goossens, Alexander 48151 Viaene, Jan 1651 Perdu
2022-09-25 11520 Van Verdegem, Wesley 12160 Langie, Jeroen 1418 Perdu
2022-09-25 11611 Lauwers, Rudi 50295 Van Dosselaer, Mattias 1374 Perdu
2022-09-25 11764 Peers, Wim 19354 Sazonov, Andrei 1414 Gain
2022-09-25 11876 Claeys, Robin 23150 Declercq De Caigny, Finn   Gain
2022-09-25 11946 Arakelyan, Narek 48127 De Geest, Jan 1518 Gain
2022-09-25 11958 De Borggraef, Léon 24514 Torfs, Hendrik   Gain
2022-09-25 12092 Van Kerkhove, Piet 12824 Vancoillie, Guido 1589 Nulle
2022-09-25 12160 Langie, Jeroen 11520 Van Verdegem, Wesley 1406 Gain
2022-09-25 12187 De Smet, Ruben 6891 De Visser, Stefaan 1350 Gain
2022-09-25 12268 Corstjens, André 18057 Litt, Thibo   Gain
2022-09-25 12289 Wielfaert, Koen 21179 Van Heddeghem, Sam   Nulle
2022-09-25 12340 Kim, Oleg 21329 Benredouane, Ilies 1703 Perdu
2022-09-25 12374 Smet, Luc 14178 Van Dyck, Ineke 1367 Nulle
2022-09-25 12451 Thienpont, Xander 17541 Lewandowski, Artur 1695 Gain
2022-09-25 12610 Marchal, Anaïs 22642 Albert, Jean   Gain
2022-09-25 12640 Verschueren, Dirk 23719 Merle, Lila   Gain
2022-09-25 12809 Sissau, Arno 14281 De Boeck, Pierre 1330 Nulle
2022-09-25 12824 Vancoillie, Guido 12092 Van Kerkhove, Piet 1711 Nulle
2022-09-25 12839 Claeys, Jurgen 23708 Liveyns, Antje   Gain
2022-09-25 12920 Mackels, Mika 43885 Venken, Kenneth 1721 Perdu
2022-09-25 12928 Boudry, Rik 22870 Goderis, Wim 1452 Gain
2022-09-25 13004 Poppe, Gaitan 17780 Plomp, Mateo 1518 Gain
2022-09-25 13028 Thomas, Erich 95001 Willen, Ronny 1831 Perdu
2022-09-25 13053 Romboni, Charles 63771 Drossart, Julien 1557 Nulle
2022-09-25 13111 Bastin, Hubert 24131 Cakmak, Metehan Tugra   Gain
2022-09-25 13172 Verbruggen, David 15710 De Rycke, Killian 1356 Perdu
2022-09-25 13287 Ducaert, Alexander 23263 Daems, Thibaut   Perdu
2022-09-25 13409 Pensaert, Rudy 44911 Coenen, Tom 1477 Perdu
2022-09-25 13427 D'Heer, Matthias 49263 Audooren, Olaf 1293 Perdu
2022-09-25 13464 Torfs, Gert 16158 Roymans, Liese 1521 Nulle
2022-09-25 13560 De Maertelaer, Marcel 36331 Van Rillaer, Dirk 1653 Perdu
2022-09-25 13618 Kumpen, Kurt 21997 Roosen, Stefan 1716 Perdu
2022-09-25 13652 De Bakker, Mathisse 19917 Van Parys, Frederik 1777 Gain
2022-09-25 13798 Debucke, Jolan 14755 Hulpiau, Joshua 1548 Gain
2022-09-25 13896 Obolonskyy, Vladomeare 24398 De Coninck, Jonathan   Perdu
2022-09-25 13934 Lauwers, Timo 20702 Lambertz, Philippe 1560 Gain
2022-09-25 14071 Laureys, Jo 16199 Peeters, Jurre   Gain
2022-09-25 14113 Hooybergs, Jan 46281 Baete, Guy 1881 Perdu
2022-09-25 14178 Van Dyck, Ineke 12374 Smet, Luc 1333 Nulle
2022-09-25 14197 Maas, Willem 32298 Theys, Bart 1910 Perdu
2022-09-25 14281 De Boeck, Pierre 12809 Sissau, Arno   Nulle
2022-09-25 14298 Drappa, Francesco 79065 Leroy, Sylvain 1223 Gain
2022-09-25 14304 Di Pronio, Mario 93599 Grijp, Peter 1904 Gain
2022-09-25 14392 Debunne, Lasse 30988 De Brouwere, Johan 1665 Perdu
2022-09-25 14419 Valcke, Rudi 62316 De Vriendt, Augustin 1443 Gain
2022-09-25 14507 Michielsen, Lies 19574 Boatca, Luca 1448 Nulle
2022-09-25 14515 Peroglio, Yves 77828 Bussola, Eric 1510 Nulle
2022-09-25 14521 Deleu, Karen 19585 Boersma, Cees 1455 Gain
2022-09-25 14577 Oloeriu, Calin 38156 Evens, Joris 1444 Gain
2022-09-25 14694 Lauwers, Brent 6050 Moeyersons, Koenraad 1453 Nulle
2022-09-25 14755 Hulpiau, Joshua 13798 Debucke, Jolan 1610 Perdu
2022-09-25 14766 Palazoski, Elvir 23384 Heidingsfeld, Adam   Perdu
2022-09-25 14915 Lievens, Robert 19634 Tychon, Norris   Gain
2022-09-25 14948 De Meerleer, Jeroen 21893 Beirnaert, Linde   Gain
2022-09-25 15007 Van Doorne, Stijn 98226 Haers, Luc 1447 Nulle
2022-09-25 15038 De Maeyer, Zeno 53180 Durieux, Frank 1380 Gain
2022-09-25 15070 De Prycker, Wannes 15465 Cappan, Stan 1370 Gain
2022-09-25 15120 Oloeriu, Lacramioara 96704 Schatteman, Sven 1217 Perdu
2022-09-25 15125 Oloeriu, Bogdan Marian 17254 Van Steen, Guido 1407 Nulle
2022-09-25 15132 De Putter, Sven 28673 De Gendt, Eddy 1379 Gain
2022-09-25 15171 Withouck, Jonas 16131 Foulon, Xavier   Gain
2022-09-25 15459 Talloen, Bert 60620 Heynsmans, Michel 1411 Gain
2022-09-25 15465 Cappan, Stan 15070 De Prycker, Wannes 1227 Perdu
2022-09-25 15524 Decraene, Merlijn 23908 Van Maele, Nand   Perdu
2022-09-25 15542 Van Bladel, Rune 54852 Provoost, Benny 1493 Nulle
2022-09-25 15556 Gommers, Tijn 59960 Ulburghs, Piet 1636 Gain
2022-09-25 15562 Osaer, Jarne 10306 Claeys, Elisabeth 1444 Perdu
2022-09-25 15584 Beddegenoodts, Marc 22027 Toroptsev, Kristian   Gain
2022-09-25 15632 Brys, Yves 36005 Vanherck, Jeroen 1577 Perdu
2022-09-25 15710 De Rycke, Killian 13172 Verbruggen, David 1240 Gain
2022-09-25 15740 Elal-Lati, Ilias 19687 Wittevrouw, Tom 1300 Gain
2022-09-25 15767 Van Hove, David 22773 Andriessen, Max   Nulle
2022-09-25 15819 Tempels, Robbe 26662 Vercruyce, Danny 1449 Gain
2022-09-25 15856 Pouliart, Sander 23713 Van Elsacker, Jasper 1494 Perdu
2022-09-25 15863 Coppens, Bart 16027 Gellinck, Simon 1497 Nulle
2022-09-25 15928 Manueke, Hervano 24504 Vanormelingen, Arne   Gain
2022-09-25 15981 Navez, Antoine 23270 Jacob, Raphaël   Gain
2022-09-25 16002 Navez, Alice 60727 Hermet, Eric 1592 Gain
2022-09-25 16027 Gellinck, Simon 15863 Coppens, Bart   Nulle
2022-09-25 16062 Pauwels, Wout 19719 Oudewaal, George 1150 Gain
2022-09-25 16100 De Caluwé, Gerard 23918 Dreezen, Thomas   Perdu
2022-09-25 16131 Foulon, Xavier 15171 Withouck, Jonas   Perdu
2022-09-25 16158 Roymans, Liese 13464 Torfs, Gert 1572 Nulle
2022-09-25 16160 Rousseau, Christilla 19124 Van Achte, Seppe   Gain
2022-09-25 16199 Peeters, Jurre 14071 Laureys, Jo 1336 Perdu
2022-09-25 16316 Lepoutre, Florian 24240 Vandevannet, Tristan   Gain
2022-09-25 16353 De Putter, Peter 20055 Van Lierde, Carl 1434 Gain
2022-09-25 16377 Simek, Antonia 19131 Hanssen, Casper   Gain
2022-09-25 16418 Thiry, Victor 23258 Macquoy, Ruben   Perdu
2022-09-25 16522 Ongenae, Veerle 21992 Tabsho, Hassan   Gain
2022-09-25 16568 Demarest, Patrick 23925 Galle, Chris   Gain
2022-09-25 16647 Herbay, Giacomo 64319 Croufer, Guillaume 1174 Gain
2022-09-25 16649 Kauschanski, Nicolas 23764 Van Lochem, David   Gain
2022-09-25 16693 De Martelaere, Bram 21108 Ip, Lucas   Perdu
2022-09-25 16762 De Bie, Yannick 24711 De Ruysscher, Jeremy   Nulle
2022-09-25 16771 Entwistle, Alan 11125 Bondroit, Stef 1534 Perdu
2022-09-25 16787 Kaminskiy, Volodimyr 19544 Stragier, Lucas   Gain
2022-09-25 16812 Oloeriu, Cezar 45128 De Greve, Willy 1283 Perdu
2022-09-25 16825 Moens, Yelte 24631 Servotte, Thomas   Perdu
2022-09-25 16854 Alcamisi, Charles 24472 Bodart, Vincent   Perdu
2022-09-25 16887 Michiels, Lode 23882 Jadoul, Maximilien   Perdu
2022-09-25 16894 Burssens, Maya 51829 Wollaert, Brian 1603 Nulle
2022-09-25 16962 Haselhuhn, Oskar 70530 Kuzmin, Vladimir 1638 Perdu
2022-09-25 17122 Vertongen, Jack 19553 Maes, Jasper   Gain
2022-09-25 17129 Jadoul, Mathys 89303 Bassine, David 1541 Gain
2022-09-25 17171 De Nys, Noa 23295 Foucart, Olivier   Gain
2022-09-25 17254 Van Steen, Guido 15125 Oloeriu, Bogdan Marian 1356 Nulle
2022-09-25 17290 De Wachter, Livia 18084 Celiktas, Ayhan 1271 Perdu
2022-09-25 17291 Abidin, Aysajan 46302 Van Mol, Yves 1468 Nulle
2022-09-25 17294 Abdel-Kafi, Taha 60468 Sohet, Cédric 1604 Perdu
2022-09-25 17370 Hubert, René 19478 Schouteden, Linda 1150 Gain
2022-09-25 17461 Van Parys, Dago 22180 Bekaert, Dylan   Perdu
2022-09-25 17527 De Praitere, Hannes 23020 Terkuci, Orfeo   Perdu
2022-09-25 17541 Lewandowski, Artur 12451 Thienpont, Xander 1448 Perdu
2022-09-25 17628 Gaelens, Joachim 41629 Van Vooren, Marc 1748 Nulle
2022-09-25 17669 Aishajiang, Ehsan 60619 Padovano, Quentin 1419 Gain
2022-09-25 17688 Solis Calancha, Jordi 80195 Auquier, Yvan 1581 Gain
2022-09-25 17730 Bensafi, Mathias 19971 Thomas, John 1275 Perdu
2022-09-25 17755 Wydooghe, Diederik 77348 Skowron, Jean-Pol 1468 Perdu
2022-09-25 17756 Callewaert, Damien 82571 Charlier, Laurent 1784 Perdu
2022-09-25 17780 Plomp, Mateo 13004 Poppe, Gaitan 1638 Perdu
2022-09-25 17825 Verlinden, Willem 24817 Chen, Rongqi   Gain
2022-09-25 17860 Brand, Leonard 21037 Schijns, Matz   Perdu
2022-09-25 17890 Sypre, Sabine 23329 Hanssen, Paul 1523 Perdu
2022-09-25 17902 De Cuyper, Yago 24105 Festraerts, Len   Gain
2022-09-25 18057 Litt, Thibo 12268 Corstjens, André 1241 Perdu
2022-09-25 18081 Celiktas, Kaan 27278 Duchesne, Marc 1696 Perdu
2022-09-25 18084 Celiktas, Ayhan 17290 De Wachter, Livia 1248 Gain
2022-09-25 18086 Martins Soares, Raphaël 23402 Ho, Sy Le 1489 Perdu
2022-09-25 18102 Xing, Daniël 23375 Wilmotte, Frederik   Nulle
2022-09-25 18136 Van Heucke, Marc 23247 Orban, Pieter-Jan   Gain
2022-09-25 18157 Plomp, Luka 36366 Vandevelde, Luc 1457 Perdu
2022-09-25 18680 Wang, Yixuan 19375 Vannecke, Ben   Gain
2022-09-25 18952 Wong, Jayden 23387 Sips, Arno   Perdu
2022-09-25 19124 Van Achte, Seppe 16160 Rousseau, Christilla 1689 Perdu
2022-09-25 19131 Hanssen, Casper 16377 Simek, Antonia 1524 Perdu
2022-09-25 19351 Stuyven, Liese 24766 Verplancke, Joost   Perdu
2022-09-25 19354 Sazonov, Andrei 11764 Peers, Wim 1514 Perdu
2022-09-25 19371 Huybrechts, Kobe 21399 Debeuf, Filip   Gain
2022-09-25 19375 Vannecke, Ben 18680 Wang, Yixuan   Perdu
2022-09-25 19439 Raus, Linus 53619 Doossche, Carlo 1578 Perdu
2022-09-25 19459 Hoffmann, Sam 29351 Schols, Geri 1586 Perdu
2022-09-25 19469 Surkol, Hector 10499 Braekmans, Geert 1654 Gain
2022-09-25 19478 Schouteden, Linda 17370 Hubert, René 1400 Perdu
2022-09-25 19544 Stragier, Lucas 16787 Kaminskiy, Volodimyr 1150 Perdu
2022-09-25 19553 Maes, Jasper 17122 Vertongen, Jack 1258 Perdu
2022-09-25 19574 Boatca, Luca 14507 Michielsen, Lies 1662 Nulle
2022-09-25 19585 Boersma, Cees 14521 Deleu, Karen 1327 Perdu
2022-09-25 19606 Dumoulin, Patrick 22779 Klinkenberg, Diana   Gain
2022-09-25 19619 Wolff, Oren 23740 Bergamini, Massimo   Gain
2022-09-25 19627 De Rycke, Georges 49743 Matthys, Johan 1593 Nulle
2022-09-25 19634 Tychon, Norris 14915 Lievens, Robert 1455 Perdu
2022-09-25 19644 Sarens, Leon 27260 Van Hoof, Wilfried 1646 Perdu
2022-09-25 19678 Stroobant, Arne 24886 Alexander, Regilio   Gain
2022-09-25 19687 Wittevrouw, Tom 15740 Elal-Lati, Ilias   Perdu
2022-09-25 19719 Oudewaal, George 16062 Pauwels, Wout   Perdu
2022-09-25 19757 Noens, Yoran 21599 De Cat, Timo   Gain
2022-09-25 19775 Joenck, Christopher 82589 De Wergifosse, Étienne 1597 Gain
2022-09-25 19776 Delporte, Mats 23312 Janssens, Sören   Gain
2022-09-25 19799 Peeters, Vince 10208 Staes, Jan 1621 Perdu
2022-09-25 19839 Steeno, Matz 22175 Wu, Zhengbang 1511 Perdu
2022-09-25 19902 Troiani, Maxime 23292 Descamps, Thomas   Perdu
2022-09-25 19917 Van Parys, Frederik 13652 De Bakker, Mathisse 1497 Perdu
2022-09-25 19923 Verelst, Felix 24630 Van Hecke, Wouter   Gain
2022-09-25 19936 Janssens, Dirk 20037 De Maeyer, Kurt   Perdu
2022-09-25 19971 Thomas, John 17730 Bensafi, Mathias 1182 Gain
2022-09-25 20037 De Maeyer, Kurt 19936 Janssens, Dirk 1430 Gain
2022-09-25 20055 Van Lierde, Carl 16353 De Putter, Peter 1620 Perdu
2022-09-25 20085 Huybrechts, Martijn 32239 De Duffeleer, Philippe 1673 Perdu
2022-09-25 20157 Van Bockland, Siebe 23956 Merle, Thibault   Perdu
2022-09-25 20251 Van Damme, Ulysse 24147 Ingels, Nick 1150 Gain
2022-09-25 20484 Van Nimmen, Nolan 23723 Ringoot, Miguel   Perdu
2022-09-25 20505 Reveillon, Nathan 62278 Ruelens, Thierry 1333 Perdu
2022-09-25 20702 Lambertz, Philippe 13934 Lauwers, Timo 1522 Perdu
2022-09-25 20860 Vivas Nicolau, Eduardo 58017 Gatta, Bruno 1337 Perdu
2022-09-25 21037 Schijns, Matz 17860 Brand, Leonard 1280 Gain
2022-09-25 21041 Laporte, Erik 50165 Frans, David 1465 Gain
2022-09-25 21048 Van Brussel, Thomas 60673 Kellner, Yohan 1468 Gain
2022-09-25 21108 Ip, Lucas 16693 De Martelaere, Bram   Gain
2022-09-25 21109 Ip, Tobias 38016 Van Heghe, Isabelle 1150 Gain
2022-09-25 21117 Vermeulen, Hailey 23716 Fordeyn, Tibo   Perdu
2022-09-25 21179 Van Heddeghem, Sam 12289 Wielfaert, Koen 1563 Nulle
2022-09-25 21205 Declerck, Adriaan 24867 Van Orden, Danny   Gain
2022-09-25 21206 Djokar, Sadegh 48968 Jacobs, Paul 1642 Perdu
2022-09-25 21284 Vermeulen, Christa 22875 Demuytere, Joppe   Gain
2022-09-25 21329 Benredouane, Ilies 12340 Kim, Oleg 1513 Gain
2022-09-25 21392 Renders, Henk 11266 Geussens, Patrick 1519 Nulle
2022-09-25 21399 Debeuf, Filip 19371 Huybrechts, Kobe   Perdu
2022-09-25 21456 Decaestecker, Maarten 45365 Rotthier, Géry 1375 Nulle
2022-09-25 21498 Roelandt, Jesse 28134 Van Houtte, Filip 1741 Gain
2022-09-25 21499 Chhawchharia, Kahaan 30066 De Cock, Cesar 1289 Perdu
2022-09-25 21533 Montignie, Damien 24015 Picqueur, Eric 1152 Gain
2022-09-25 21550 Noel, Julien 23021 Dehoux, Cédric 1477 Gain
2022-09-25 21578 Busquets Xapelli, David 24610 Corteville, Fabien   Perdu
2022-09-25 21599 De Cat, Timo 19757 Noens, Yoran   Perdu
2022-09-25 21615 Van Vlierberghe, Matthew-Vincent 2925 Van Landeghem, Gunther 1481 Perdu
2022-09-25 21665 Peeters, Milo 22760 Minnaert, Bob   Perdu
2022-09-25 21682 Fleischeuer, Sebastian 3531 Bistiaux, Thomas 1765 Perdu
2022-09-25 21753 Theys, Quinten 23502 Billen, Arnoud   Perdu
2022-09-25 21766 Vermeer, Stef 21772 Theys, Tristan   Gain
2022-09-25 21772 Theys, Tristan 21766 Vermeer, Stef   Perdu
2022-09-25 21843 Van Keirsbilck, Ilias 22702 Cleuren, Thomas   Nulle
2022-09-25 21853 Seyns, Odilon 24386 Tupikin, Viktor   Gain
2022-09-25 21872 Drijer, Joshua 48895 Simons, Jean 1825 Perdu
2022-09-25 21873 Denys, Alex 213 Deblauwe, Pauwel 1742 Nulle
2022-09-25 21893 Beirnaert, Linde 14948 De Meerleer, Jeroen 1150 Perdu
2022-09-25 21971 Facchin, Ronald 22952 Prins, Ingmar 1568 Perdu
2022-09-25 21990 Al Sakka, Mustapha 46710 Hawia, Thierry 1978 Nulle
2022-09-25 21992 Tabsho, Hassan 16522 Ongenae, Veerle 1296 Perdu
2022-09-25 21997 Roosen, Stefan 13618 Kumpen, Kurt 1475 Gain
2022-09-25 21999 Braem, Axel 31101 Bleck, Alfred 1416 Perdu
2022-09-25 22025 Lukin, Yesenia 23994 Olemans, Arne   Gain
2022-09-25 22027 Toroptsev, Kristian 15584 Beddegenoodts, Marc 1224 Perdu
2022-09-25 22060 Staelens, Maël 4316 Vanassche, Renaat 1310 Gain
2022-09-25 22071 De Scheemacker, Peter 24714 Hebben, Stijn   Nulle
2022-09-25 22175 Wu, Zhengbang 19839 Steeno, Matz   Gain
2022-09-25 22180 Bekaert, Dylan 17461 Van Parys, Dago 1245 Gain
2022-09-25 22388 Geenen, Kobe 24586 Trevisan, Giovanni   Perdu
2022-09-25 22407 Tanzarella, Emilio 85472 Van Bael, Pascal 1604 Perdu
2022-09-25 22510 Van Ewijk, Uma 23866 Maes, Castor   Nulle
2022-09-25 22531 Zaaboul, Imrane 25018 Innocenti, Jean-Dominique   Perdu
2022-09-25 22642 Albert, Jean 12610 Marchal, Anaïs 1442 Perdu
2022-09-25 22677 Vergauwen, Gertjan 23915 De Ketelaere, Raphaël   Perdu
2022-09-25 22702 Cleuren, Thomas 21843 Van Keirsbilck, Ilias   Nulle
2022-09-25 22749 Hernandez Morales, Adriel 50152 Van Roy, Arno 1455 Perdu
2022-09-25 22760 Minnaert, Bob 21665 Peeters, Milo   Gain
2022-09-25 22773 Andriessen, Max 15767 Van Hove, David   Nulle
2022-09-25 22779 Klinkenberg, Diana 19606 Dumoulin, Patrick 1332 Perdu
2022-09-25 22798 Van Onckelen, Noam 23239 Fischer, Joshua   Perdu
2022-09-25 22809 Semal, Sebastien 24499 Houzé, Sylvain   Gain
2022-09-25 22848 Verhasselt, Martin 23121 Winden, Patrick   Gain
2022-09-25 22870 Goderis, Wim 12928 Boudry, Rik 1484 Perdu
2022-09-25 22875 Demuytere, Joppe 21284 Vermeulen, Christa   Perdu
2022-09-25 22878 Reybroeck, Arjen 22879 Vanherreweghe, Tuur   Perdu
2022-09-25 22879 Vanherreweghe, Tuur 22878 Reybroeck, Arjen   Gain
2022-09-25 22952 Prins, Ingmar 21971 Facchin, Ronald 1462 Gain
2022-09-25 22957 Letoret, Tim 67971 Lepape, Philippe 1388 Gain
2022-09-25 23020 Terkuci, Orfeo 17527 De Praitere, Hannes   Gain
2022-09-25 23021 Dehoux, Cédric 21550 Noel, Julien   Perdu
2022-09-25 23023 Fabri D'Enneilles, Gaétan 43605 Pitropakis, Kyriakos 1513 Perdu
2022-09-25 23066 Franc, Thomas 63371 Dejasse, Daniel 1466 Nulle
2022-09-25 23071 Gjymshana, Erik 23301 De Meyer, Jeroen   Nulle
2022-09-25 23075 Pérez, Santiago 85642 Tavernier, Frank 1626 Gain
2022-09-25 23102 Beckers, Seth 24707 Decuypere, Kato   Gain
2022-09-25 23121 Winden, Patrick 22848 Verhasselt, Martin   Perdu
2022-09-25 23133 Tillieu, Anja 50205 Van Haute, Dieter   Perdu
2022-09-25 23150 Declercq De Caigny, Finn 11876 Claeys, Robin 1774 Perdu
2022-09-25 23174 De Coninck, Nelles 24808 Leirs, Rubben   Gain
2022-09-25 23194 Smirnov, Sergey 63762 Pitz, Luc 1408 Nulle
2022-09-25 23239 Fischer, Joshua 22798 Van Onckelen, Noam   Gain
2022-09-25 23247 Orban, Pieter-Jan 18136 Van Heucke, Marc 1400 Perdu
2022-09-25 23258 Macquoy, Ruben 16418 Thiry, Victor   Gain
2022-09-25 23263 Daems, Thibaut 13287 Ducaert, Alexander   Gain
2022-09-25 23266 De Klerck, Théo 24820 Vanderplasschen, Luca   Gain
2022-09-25 23270 Jacob, Raphaël 15981 Navez, Antoine 1296 Perdu
2022-09-25 23289 Iboud, Samir 78166 Dupont, Claude 1665 Nulle
2022-09-25 23292 Descamps, Thomas 19902 Troiani, Maxime   Gain
2022-09-25 23295 Foucart, Olivier 17171 De Nys, Noa 1312 Perdu
2022-09-25 23300 Gangai, Luis 65871 Pitropakis, Anthony 1656 Nulle
2022-09-25 23301 De Meyer, Jeroen 23071 Gjymshana, Erik   Nulle
2022-09-25 23311 Guldentops, Pierre 27243 Geukens, Staf 1633 Gain
2022-09-25 23312 Janssens, Sören 19776 Delporte, Mats   Perdu
2022-09-25 23329 Hanssen, Paul 17890 Sypre, Sabine   Gain
2022-09-25 23339 Fiorini, Lucien 68292 Chantry, Vincent 1448 Nulle
2022-09-25 23348 Letourneur, Alexander 83127 Wiot, Philippe 1399 Perdu
2022-09-25 23350 Pierrard, David 82856 Delvaux, Guy 1407 Gain
2022-09-25 23351 Defour, Eline 24740 Breugelmans, Jan   Gain
2022-09-25 23368 De Vooght, Jamie 23378 Matthynssens, Alexander   Gain
2022-09-25 23375 Wilmotte, Frederik 18102 Xing, Daniël 1188 Nulle
2022-09-25 23378 Matthynssens, Alexander 23368 De Vooght, Jamie   Perdu
2022-09-25 23381 Frouws, Willem 7251 De Bode, Joren 1629 Perdu
2022-09-25 23384 Heidingsfeld, Adam 14766 Palazoski, Elvir 1552 Gain
2022-09-25 23387 Sips, Arno 18952 Wong, Jayden   Gain
2022-09-25 23402 Ho, Sy Le 18086 Martins Soares, Raphaël   Gain
2022-09-25 23440 Klonaris, Pierre 70033 Rorive, Alain 1197 Perdu
2022-09-25 23502 Billen, Arnoud 21753 Theys, Quinten   Gain
2022-09-25 23510 Vermeulen, Jorden 32247 Suski, Dominiek 1512 Perdu
2022-09-25 23512 De Coninck, Rune 98797 De Swert, Heidi 1419 Gain
2022-09-25 23528 Vanhooren, Julien 23997 Dehoux, Frédéric   Perdu
2022-09-25 23555 Slechten, Tim 68764 Remon, Serge 1488 Gain
2022-09-25 23599 Van Campenhout, Michael 98654 Druart, Christophe 1160 Gain
2022-09-25 23613 Everaert, Frederic 95782 Verleye, William 1589 Gain
2022-09-25 23622 Van Stechelman, Stan 95979 Vanhee, Dirk 1411 Perdu
2022-09-25 23658 Deneyer, Théo 67164 Rando, Manuel 1548 Perdu
2022-09-25 23708 Liveyns, Antje 12839 Claeys, Jurgen   Perdu
2022-09-25 23713 Van Elsacker, Jasper 15856 Pouliart, Sander 1475 Gain
2022-09-25 23716 Fordeyn, Tibo 21117 Vermeulen, Hailey   Gain
2022-09-25 23719 Merle, Lila 12640 Verschueren, Dirk 1342 Perdu
2022-09-25 23723 Ringoot, Miguel 20484 Van Nimmen, Nolan   Gain
2022-09-25 23725 Van Uytvange, Jonas 24637 Shchetinin, Mykyta   Gain
2022-09-25 23727 Desimpelaere, Christian 27189 Dooms, Vincent 1361 Perdu
2022-09-25 23740 Bergamini, Massimo 19619 Wolff, Oren   Perdu
2022-09-25 23747 Nazari, Mani 3841 Van Den Bergh, Luc 1568 Gain
2022-09-25 23751 Arguelles, Carlos 83411 Pollet, Charles 1201 Perdu
2022-09-25 23764 Van Lochem, David 16649 Kauschanski, Nicolas 1219 Perdu
2022-09-25 23766 Van Lochem, Alex 23771 Gupta, Akul   Perdu
2022-09-25 23771 Gupta, Akul 23766 Van Lochem, Alex   Gain
2022-09-25 23773 Lalkota, Sai Pranav Tejas 98612 Jenniges, Klaus 1318 Perdu
2022-09-25 23805 Chabeau, Kurt 97301 Monnier, Samuel 1675 Nulle
2022-09-25 23839 Frenzel, Qorianka 24799 Hellemans, Jonathan   Gain
2022-09-25 23866 Maes, Castor 22510 Van Ewijk, Uma   Nulle
2022-09-25 23882 Jadoul, Maximilien 16887 Michiels, Lode   Gain
2022-09-25 23908 Van Maele, Nand 15524 Decraene, Merlijn 1242 Gain
2022-09-25 23915 De Ketelaere, Raphaël 22677 Vergauwen, Gertjan   Gain
2022-09-25 23918 Dreezen, Thomas 16100 De Caluwé, Gerard 1163 Gain
2022-09-25 23925 Galle, Chris 16568 Demarest, Patrick 1248 Perdu
2022-09-25 23956 Merle, Thibault 20157 Van Bockland, Siebe   Gain
2022-09-25 23960 Amoroso, Thomas 24713 Ertugrul, Yigit   Perdu
2022-09-25 23994 Olemans, Arne 22025 Lukin, Yesenia   Perdu
2022-09-25 23997 Dehoux, Frédéric 23528 Vanhooren, Julien   Gain
2022-09-25 24015 Picqueur, Eric 21533 Montignie, Damien   Perdu
2022-09-25 24050 Brouillard, Oscar 24542 Longfils, Damien   Gain
2022-09-25 24105 Festraerts, Len 17902 De Cuyper, Yago 1873 Perdu
2022-09-25 24131 Cakmak, Metehan Tugra 13111 Bastin, Hubert 1449 Perdu
2022-09-25 24147 Ingels, Nick 20251 Van Damme, Ulysse 1292 Perdu
2022-09-25 24209 Restivo, Alessio 84301 Legros, Frédéric 1325 Perdu
2022-09-25 24231 Lalkota, Naresh Kumar 95093 Faymonville, Marcel 1334 Perdu
2022-09-25 24240 Vandevannet, Tristan 16316 Lepoutre, Florian 1279 Perdu
2022-09-25 24246 Sputael, Ludwig 70327 Collignon, Fabrice 1534 Nulle
2022-09-25 24281 Beaucarne, Loïc 24816 Masselin, Lennert   Nulle
2022-09-25 24298 Kaduk Aguilar, Borin 55549 Castiau, Julien 1445 Gain
2022-09-25 24319 Demeyere, Thomas 60174 Jamar, Marc 1402 Gain
2022-09-25 24386 Tupikin, Viktor 21853 Seyns, Odilon   Perdu
2022-09-25 24398 De Coninck, Jonathan 13896 Obolonskyy, Vladomeare 1186 Gain
2022-09-25 24466 Khorrami, Faraz 8575 Herman, Luc 1831 Gain
2022-09-25 24472 Bodart, Vincent 16854 Alcamisi, Charles 1414 Gain
2022-09-25 24499 Houzé, Sylvain 22809 Semal, Sebastien   Perdu
2022-09-25 24504 Vanormelingen, Arne 15928 Manueke, Hervano 1346 Perdu
2022-09-25 24507 Pitts, Reuben 97504 Mangini, Giovanni 1777 Nulle
2022-09-25 24514 Torfs, Hendrik 11958 De Borggraef, Léon 1487 Perdu
2022-09-25 24542 Longfils, Damien 24050 Brouillard, Oscar   Perdu
2022-09-25 24586 Trevisan, Giovanni 22388 Geenen, Kobe   Gain
2022-09-25 24610 Corteville, Fabien 21578 Busquets Xapelli, David   Gain
2022-09-25 24613 Vinckier, Robin 2941 Gervais, Jacques 1479 Nulle
2022-09-25 24630 Van Hecke, Wouter 19923 Verelst, Felix   Perdu
2022-09-25 24631 Servotte, Thomas 16825 Moens, Yelte   Gain
2022-09-25 24637 Shchetinin, Mykyta 23725 Van Uytvange, Jonas   Perdu
2022-09-25 24652 Amilhat, Kilian 58190 Portier, William 1441 Perdu
2022-09-25 24707 Decuypere, Kato 23102 Beckers, Seth   Perdu
2022-09-25 24711 De Ruysscher, Jeremy 16762 De Bie, Yannick 1337 Nulle
2022-09-25 24713 Ertugrul, Yigit 23960 Amoroso, Thomas   Gain
2022-09-25 24714 Hebben, Stijn 22071 De Scheemacker, Peter 1374 Nulle
2022-09-25 24740 Breugelmans, Jan 23351 Defour, Eline   Perdu
2022-09-25 24766 Verplancke, Joost 19351 Stuyven, Liese   Gain
2022-09-25 24799 Hellemans, Jonathan 23839 Frenzel, Qorianka   Perdu
2022-09-25 24808 Leirs, Rubben 23174 De Coninck, Nelles   Perdu
2022-09-25 24810 Tersmette, Alexander 84565 Mourrier, Laurent 1571 Gain
2022-09-25 24816 Masselin, Lennert 24281 Beaucarne, Loïc   Nulle
2022-09-25 24817 Chen, Rongqi 17825 Verlinden, Willem 1617 Perdu
2022-09-25 24820 Vanderplasschen, Luca 23266 De Klerck, Théo 1444 Perdu
2022-09-25 24828 Remience, Frédéric 24835 Molenaar, Bram   Perdu
2022-09-25 24835 Molenaar, Bram 24828 Remience, Frédéric   Gain
2022-09-25 24867 Van Orden, Danny 21205 Declerck, Adriaan 1315 Perdu
2022-09-25 24886 Alexander, Regilio 19678 Stroobant, Arne 1321 Perdu
2022-09-25 24890 Van Leuven, Jan 24993 Santschi, Samantha   Gain
2022-09-25 24942 Klipper, Noémie 40576 Claessens, Erik 1383 Gain
2022-09-25 24993 Santschi, Samantha 24890 Van Leuven, Jan   Perdu
2022-09-25 25018 Innocenti, Jean-Dominique 22531 Zaaboul, Imrane   Gain
2022-09-25 25079 Vanhove, Robbie 56880 Deleu, Emmanuel 1238 Gain
2022-09-25 25118 Neff, Thomas 72583 Corda, Thierry 1726 Perdu
2022-09-25 25124 Tolu, Matty 10435 Michiels, Arsène   Perdu
2022-09-25 25158 Vasilev, Ivo 58947 De Meyere, Dirk 1490 Perdu
2022-09-25 26018 De Weird, Evy 80748 Dumont, Freddy 1652 Nulle
2022-09-25 26654 Willems, Chris 50067 Van Heddeghem, Klaas 1635 Perdu
2022-09-25 26662 Vercruyce, Danny 15819 Tempels, Robbe 1220 Perdu
2022-09-25 27189 Dooms, Vincent 23727 Desimpelaere, Christian   Gain
2022-09-25 27243 Geukens, Staf 23311 Guldentops, Pierre 1650 Perdu
2022-09-25 27260 Van Hoof, Wilfried 19644 Sarens, Leon 1284 Gain
2022-09-25 27278 Duchesne, Marc 18081 Celiktas, Kaan 1333 Gain
2022-09-25 28134 Van Houtte, Filip 21498 Roelandt, Jesse 1263 Perdu
2022-09-25 28673 De Gendt, Eddy 15132 De Putter, Sven 1389 Perdu
2022-09-25 29351 Schols, Geri 19459 Hoffmann, Sam   Gain
2022-09-25 30066 De Cock, Cesar 21499 Chhawchharia, Kahaan   Gain
2022-09-25 30988 De Brouwere, Johan 14392 Debunne, Lasse 1299 Gain
2022-09-25 31101 Bleck, Alfred 21999 Braem, Axel   Gain
2022-09-25 32221 Vancoppenolle, Ghislain 10207 Verbruggen, Peter 1645 Gain
2022-09-25 32239 De Duffeleer, Philippe 20085 Huybrechts, Martijn   Gain
2022-09-25 32247 Suski, Dominiek 23510 Vermeulen, Jorden   Gain
2022-09-25 32298 Theys, Bart 14197 Maas, Willem 1317 Gain
2022-09-25 32409 Vlaeminck, Frank 11405 Vanroose, Gunnar 1295 Perdu
2022-09-25 33618 Baeten, Yves 47333 Cauwenberghs, Kenneth 1595 Nulle
2022-09-25 35891 Inghelbrecht, Veronique 44563 Tuytens, Ivo 1644 Nulle
2022-09-25 36005 Vanherck, Jeroen 15632 Brys, Yves 1422 Gain
2022-09-25 36331 Van Rillaer, Dirk 13560 De Maertelaer, Marcel 1196 Gain
2022-09-25 36366 Vandevelde, Luc 18157 Plomp, Luka   Gain
2022-09-25 37168 Vennekens, Camiel 98783 Devis, Wim 1762 Nulle
2022-09-25 38016 Van Heghe, Isabelle 21109 Ip, Tobias   Perdu
2022-09-25 38083 Pannier, Jean-Pierre 54429 Degrieck, Peter 1489 Perdu
2022-09-25 38156 Evens, Joris 14577 Oloeriu, Calin 1557 Perdu
2022-09-25 38237 Callant, Geert 59111 Wyntin, Dag 1862 Nulle
2022-09-25 38857 Mariame, Philippe 60110 De Harlez, Guillaume 1581 Gain
2022-09-25 38890 Van Stiphout, Marc 81833 Morgenthal, Renaud 1428 Nulle
2022-09-25 39888 De Clercq, Geert 54445 Vermeersch, Johan 1458 Perdu
2022-09-25 40576 Claessens, Erik 24942 Klipper, Noémie 1786 Perdu
2022-09-25 41220 Kocailov, Moris 3794 Van Den Abeele, Veerle 1294 Perdu
2022-09-25 41629 Van Vooren, Marc 17628 Gaelens, Joachim 1630 Nulle
2022-09-25 43605 Pitropakis, Kyriakos 23023 Fabri D'Enneilles, Gaétan   Gain
2022-09-25 43885 Venken, Kenneth 12920 Mackels, Mika 1190 Gain
2022-09-25 44563 Tuytens, Ivo 35891 Inghelbrecht, Veronique 1431 Nulle
2022-09-25 44911 Coenen, Tom 13409 Pensaert, Rudy 1300 Gain
2022-09-25 45128 De Greve, Willy 16812 Oloeriu, Cezar 1150 Gain
2022-09-25 45365 Rotthier, Géry 21456 Decaestecker, Maarten   Nulle
2022-09-25 45900 Vandekerckhove, Ava 55280 Vanden Abeele, Xavier 1752 Nulle
2022-09-25 46281 Baete, Guy 14113 Hooybergs, Jan 1464 Gain
2022-09-25 46302 Van Mol, Yves 17291 Abidin, Aysajan 1562 Nulle
2022-09-25 46582 Elizalde, Alejandro 8788 Cornelis, Werner 1384 Gain
2022-09-25 46710 Hawia, Thierry 21990 Al Sakka, Mustapha 1617 Nulle
2022-09-25 47104 Bes, Nikolaas 49654 Vervloet, Staf 1653 Perdu
2022-09-25 47333 Cauwenberghs, Kenneth 33618 Baeten, Yves 1657 Nulle
2022-09-25 47741 Van Den Heuvel, Philip 58335 Schillemans, Willy 1856 Perdu
2022-09-25 48127 De Geest, Jan 11946 Arakelyan, Narek   Perdu
2022-09-25 48151 Viaene, Jan 11413 Goossens, Alexander 1506 Gain
2022-09-25 48895 Simons, Jean 21872 Drijer, Joshua   Gain
2022-09-25 48968 Jacobs, Paul 21206 Djokar, Sadegh   Gain
2022-09-25 49263 Audooren, Olaf 13427 D'Heer, Matthias 1150 Gain
2022-09-25 49654 Vervloet, Staf 47104 Bes, Nikolaas 1665 Gain
2022-09-25 49743 Matthys, Johan 19627 De Rycke, Georges 1250 Nulle
2022-09-25 50049 Poublon, Lucien 6190 Traest, Philip 1411 Perdu
2022-09-25 50067 Van Heddeghem, Klaas 26654 Willems, Chris 1814 Gain
2022-09-25 50083 Vanden Broeck, Jan 75671 Peeters, Simonne 1643 Gain
2022-09-25 50152 Van Roy, Arno 22749 Hernandez Morales, Adriel   Gain
2022-09-25 50165 Frans, David 21041 Laporte, Erik 1632 Perdu
2022-09-25 50205 Van Haute, Dieter 23133 Tillieu, Anja   Gain
2022-09-25 50295 Van Dosselaer, Mattias 11611 Lauwers, Rudi 1408 Gain
2022-09-25 51829 Wollaert, Brian 16894 Burssens, Maya 1362 Nulle
2022-09-25 52035 Vanden Eede, Pascal 8974 Van Wiele, Kurt 1827 Gain
2022-09-25 52213 Baekelandt, Els 99665 Boschmans, Hugo 1513 Gain
2022-09-25 53180 Durieux, Frank 15038 De Maeyer, Zeno   Perdu
2022-09-25 53538 Deman, Tomas 96612 Siebert, Xavier 1622 Perdu
2022-09-25 53619 Doossche, Carlo 19439 Raus, Linus 1302 Gain
2022-09-25 54429 Degrieck, Peter 38083 Pannier, Jean-Pierre 1597 Gain
2022-09-25 54445 Vermeersch, Johan 39888 De Clercq, Geert 1399 Gain
2022-09-25 54852 Provoost, Benny 15542 Van Bladel, Rune 1217 Nulle
2022-09-25 55280 Vanden Abeele, Xavier 45900 Vandekerckhove, Ava 1637 Nulle
2022-09-25 55549 Castiau, Julien 24298 Kaduk Aguilar, Borin   Perdu
2022-09-25 56880 Deleu, Emmanuel 25079 Vanhove, Robbie   Perdu
2022-09-25 58017 Gatta, Bruno 20860 Vivas Nicolau, Eduardo   Gain
2022-09-25 58092 Delcour, Errol 98744 Hermens, Juergen 1150 Gain
2022-09-25 58190 Portier, William 24652 Amilhat, Kilian   Gain
2022-09-25 58335 Schillemans, Willy 47741 Van Den Heuvel, Philip 1624 Gain
2022-09-25 58947 De Meyere, Dirk 25158 Vasilev, Ivo   Gain
2022-09-25 59111 Wyntin, Dag 38237 Callant, Geert 1840 Nulle
2022-09-25 59960 Ulburghs, Piet 15556 Gommers, Tijn 1611 Perdu
2022-09-25 60110 De Harlez, Guillaume 38857 Mariame, Philippe 1606 Perdu
2022-09-25 60174 Jamar, Marc 24319 Demeyere, Thomas   Perdu
2022-09-25 60220 Meerschman, Maxime 78697 Frederiksen, Jens 1573 Gain
2022-09-25 60468 Sohet, Cédric 17294 Abdel-Kafi, Taha   Gain
2022-09-25 60619 Padovano, Quentin 17669 Aishajiang, Ehsan 1284 Perdu
2022-09-25 60620 Heynsmans, Michel 15459 Talloen, Bert 1346 Perdu
2022-09-25 60673 Kellner, Yohan 21048 Van Brussel, Thomas   Perdu
2022-09-25 60727 Hermet, Eric 16002 Navez, Alice 1412 Perdu
2022-09-25 62278 Ruelens, Thierry 20505 Reveillon, Nathan   Gain
2022-09-25 62316 De Vriendt, Augustin 14419 Valcke, Rudi 1578 Perdu
2022-09-25 63371 Dejasse, Daniel 23066 Franc, Thomas   Nulle
2022-09-25 63762 Pitz, Luc 23194 Smirnov, Sergey   Nulle
2022-09-25 63771 Drossart, Julien 13053 Romboni, Charles 1493 Nulle
2022-09-25 64319 Croufer, Guillaume 16647 Herbay, Giacomo 1362 Perdu
2022-09-25 65871 Pitropakis, Anthony 23300 Gangai, Luis 1304 Nulle
2022-09-25 67164 Rando, Manuel 23658 Deneyer, Théo   Gain
2022-09-25 67971 Lepape, Philippe 22957 Letoret, Tim 1315 Perdu
2022-09-25 68292 Chantry, Vincent 23339 Fiorini, Lucien 1333 Nulle
2022-09-25 68764 Remon, Serge 23555 Slechten, Tim   Perdu
2022-09-25 70033 Rorive, Alain 23440 Klonaris, Pierre   Gain
2022-09-25 70327 Collignon, Fabrice 24246 Sputael, Ludwig   Nulle
2022-09-25 70530 Kuzmin, Vladimir 16962 Haselhuhn, Oskar 1150 Gain
2022-09-25 72583 Corda, Thierry 25118 Neff, Thomas 1580 Gain
2022-09-25 75671 Peeters, Simonne 50083 Vanden Broeck, Jan 1590 Perdu
2022-09-25 75779 Briffoz, Eric 81981 Lui, Eric 1876 Perdu
2022-09-25 77348 Skowron, Jean-Pol 17755 Wydooghe, Diederik 1311 Gain
2022-09-25 77828 Bussola, Eric 14515 Peroglio, Yves 1448 Nulle
2022-09-25 78166 Dupont, Claude 23289 Iboud, Samir 1821 Nulle
2022-09-25 78697 Frederiksen, Jens 60220 Meerschman, Maxime   Perdu
2022-09-25 79065 Leroy, Sylvain 14298 Drappa, Francesco 1189 Perdu
2022-09-25 80195 Auquier, Yvan 17688 Solis Calancha, Jordi 1567 Perdu
2022-09-25 80748 Dumont, Freddy 26018 De Weird, Evy 1596 Nulle
2022-09-25 81833 Morgenthal, Renaud 38890 Van Stiphout, Marc 1632 Nulle
2022-09-25 81981 Lui, Eric 75779 Briffoz, Eric 1871 Gain
2022-09-25 82571 Charlier, Laurent 17756 Callewaert, Damien 1373 Gain
2022-09-25 82589 De Wergifosse, Étienne 19775 Joenck, Christopher   Perdu
2022-09-25 82856 Delvaux, Guy 23350 Pierrard, David   Perdu
2022-09-25 83127 Wiot, Philippe 23348 Letourneur, Alexander   Gain
2022-09-25 83411 Pollet, Charles 23751 Arguelles, Carlos   Gain
2022-09-25 84301 Legros, Frédéric 24209 Restivo, Alessio   Gain
2022-09-25 84565 Mourrier, Laurent 24810 Tersmette, Alexander   Perdu
2022-09-25 85472 Van Bael, Pascal 22407 Tanzarella, Emilio   Gain
2022-09-25 85642 Tavernier, Frank 23075 Pérez, Santiago   Perdu
2022-09-25 86894 Jannis, Guido 97659 Nadin, Corinne 1479 Nulle
2022-09-25 89303 Bassine, David 17129 Jadoul, Mathys 1219 Perdu
2022-09-25 93599 Grijp, Peter 14304 Di Pronio, Mario 1547 Perdu
2022-09-25 94935 Chabeau, Patrice 95826 Rampelbergh, Wilfrid 1592 Nulle
2022-09-25 95001 Willen, Ronny 13028 Thomas, Erich 1412 Gain
2022-09-25 95093 Faymonville, Marcel 24231 Lalkota, Naresh Kumar   Gain
2022-09-25 95604 Weynen, John 5703 Jonckers, Marie-Jeanne 1445 Gain
2022-09-25 95782 Verleye, William 23613 Everaert, Frederic   Perdu
2022-09-25 95826 Rampelbergh, Wilfrid 94935 Chabeau, Patrice 1467 Nulle
2022-09-25 95979 Vanhee, Dirk 23622 Van Stechelman, Stan   Gain
2022-09-25 96612 Siebert, Xavier 53538 Deman, Tomas 1526 Gain
2022-09-25 96704 Schatteman, Sven 15120 Oloeriu, Lacramioara 1150 Gain
2022-09-25 97301 Monnier, Samuel 23805 Chabeau, Kurt   Nulle
2022-09-25 97504 Mangini, Giovanni 24507 Pitts, Reuben   Nulle
2022-09-25 97659 Nadin, Corinne 86894 Jannis, Guido 1723 Nulle
2022-09-25 98118 Heynen, Martin 5177 Renckens, Yannick 1395 Perdu
2022-09-25 98226 Haers, Luc 15007 Van Doorne, Stijn 1546 Nulle
2022-09-25 98253 Guillaume, Francois 98434 Arguelles, Jose 1362 Perdu
2022-09-25 98434 Arguelles, Jose 98253 Guillaume, Francois 1257 Gain
2022-09-25 98612 Jenniges, Klaus 23773 Lalkota, Sai Pranav Tejas   Gain
2022-09-25 98654 Druart, Christophe 23599 Van Campenhout, Michael   Perdu
2022-09-25 98744 Hermens, Juergen 58092 Delcour, Errol 1770 Perdu
2022-09-25 98783 Devis, Wim 37168 Vennekens, Camiel 1750 Nulle
2022-09-25 98797 De Swert, Heidi 23512 De Coninck, Rune   Perdu
2022-09-25 99665 Boschmans, Hugo 52213 Baekelandt, Els 1602 Perdu
Page : 05-12-2022 14:59:10
PM_chcklist.php : 16-11-2022 14:25:37
php : v_7.1.0
 
par GMA (pour la FRBE)